Location: Saint-Antoine
(47.4968°N, 0.6300°E)
Time: 10:08:57
(UTC+00:00)

Daily predictions for brighter satellites

Satellite Brightness Start Highest point End
(mag) Time Altitude Azimuth Time Altitude Azimuth Time Altitude Azimuth
Cosmos 1833 Rocket 2.7 16:41:18 10° NNW 16:47:00 84° ENE 16:52:38 10° SSE
USA 215 3.3 16:48:14 10° ESE 16:54:47 80° NNE 17:01:20 10° NW
MOS 1 Rocket 4.1 16:56:11 10° ESE 16:59:46 26° ENE 17:03:29 10° N
ATLAS 5 CENTAUR R/B 2.0 16:56:13 10° NW 17:00:35 79° SW 17:06:02 10° SE
Cosmos 1484 Rocket 3.5 17:00:13 10° S 17:03:38 52° W 17:07:06 10° NNW
Iridium 4 Rocket 4.1 17:00:44 10° SSW 17:05:43 58° W 17:10:19 10° N
Cosmos 2233 Rocket 4.0 17:01:44 10° S 17:08:00 78° E 17:14:21 10° NNE
Cosmos 407 Rocket 3.9 17:04:09 10° S 17:09:01 43° ESE 17:13:52 10° NE
Cosmos 1725 Rocket 4.3 17:02:45 10° SSW 17:09:01 74° W 17:15:22 10° N
RESURS DK-1 2.6 17:05:35 10° NNW 17:09:26 43° NE 17:13:15 10° SE
Cosmos 2061 Rocket 4.0 17:04:15 10° S 17:10:32 74° E 17:16:46 10° NNE
ISS -3.4 17:11:20 10° SW 17:14:35 51° SSE 17:17:12 15° ENE
Cosmos 1782 Rocket 3.6 17:10:23 10° S 17:14:49 87° W 17:19:17 10° N
CZ-2D R/B 2.8 17:12:51 10° SSE 17:15:56 54° ENE 17:19:01 10° N
Cosmos 1869 3.4 17:13:19 10° SSE 17:16:38 40° E 17:19:56 10° NNE
Radarsat 4.5 17:12:45 10° SSE 17:17:54 77° ENE 17:23:07 10° NNW
SPOT 1/Viking Rocket 4.2 17:14:12 10° SE 17:18:47 33° ENE 17:23:23 10° N
Cosmos 1300 Rocket 3.9 17:14:38 10° SSW 17:19:00 71° W 17:23:23 10° N
SJ-12 3.6 17:18:58 10° SSE 17:22:43 67° ENE 17:26:30 10° N
COSMO-SKYMED 1 3.9 17:21:26 14° ENE 17:23:08 18° E 17:25:58 10° SE
IGS 5A 4.3 17:19:48 10° S 17:23:41 53° W 17:27:37 10° NNW
AQUARIUS 4.1 17:22:12 10° SSE 17:26:31 61° ENE 17:30:54 10° N
SL-12 R/B(2) 4.4 17:19:01 10° SSW 17:26:46 66° ESE 17:36:15 10° NE
BREEZE-M DEB (TANK) 2.1 17:26:37 10° WSW 17:28:58 67° SSE 17:32:21 17° ENE
Cosmos 540 Rocket 3.4 17:24:28 10° NNW 17:29:36 66° ENE 17:34:41 10° SSE
Cosmos 1400 Rocket 4.0 17:27:53 10° SE 17:30:41 20° E 17:31:12 19° ENE
Cosmos 1975 Rocket 3.2 17:28:43 10° NNW 17:33:04 75° W 17:37:25 10° S
Cosmos 1763 Rocket 3.4 17:29:51 10° NNW 17:35:06 86° ENE 17:40:15 10° SSE
Cosmos 1812 2.4 17:33:15 10° SSE 17:35:59 39° E 17:37:34 20° NE
Cosmos 1140 Rocket 4.1 17:35:50 10° SW 17:40:55 56° WNW 17:46:00 10° NNE
Cosmos 2151 Rocket 4.2 17:37:11 10° SSE 17:41:14 35° E 17:45:19 10° NNE
SMAP 3.8 17:38:02 10° S 17:42:36 57° W 17:47:13 10° NNW
Cosmos 2058 2.9 17:39:13 10° N 17:43:05 48° ENE 17:46:56 10° SSE
Cosmos 44 Rocket 3.3 17:39:03 10° SSW 17:43:43 59° ESE 17:47:06 19° NE
IRS-1C 4.4 17:38:50 10° S 17:44:08 71° WSW 17:49:29 10° NNW
Cosmos 1943 Rocket 2.1 17:43:06 10° SSW 17:48:43 78° ESE 17:54:09 11° NNE
SKYMED 2 3.8 17:45:47 10° NNE 17:50:00 47° E 17:54:11 10° S
Okean 1 Rocket 3.9 17:47:25 10° SSE 17:51:10 28° E 17:51:43 27° ENE
CZ-2D R/B 3.5 17:47:31 10° SSE 17:51:33 54° ENE 17:55:41 10° N
Helios 1A Rocket 3.3 17:51:57 29° ESE 17:51:57 29° ESE 17:54:34 10° SSE
IRAS Rocket 4.3 17:46:40 10° SE 17:52:04 54° ENE 17:57:26 10° N
Sich 1 Rocket 4.4 17:48:15 10° SSE 17:52:12 30° E 17:53:29 26° ENE
PSLV R/B 3.8 17:49:25 10° SE 17:53:11 39° ENE 17:56:57 10° N
Cosmos 2082 Rocket 2.1 17:48:06 10° NNW 17:53:43 66° ENE 17:59:18 10° SE
Landsat 7 4.4 17:50:29 10° S 17:55:03 59° W 17:59:41 10° NNW
Cosmos 1072 Rocket 4.4 17:51:06 10° S 17:57:07 61° E 18:03:08 10° NNE
Cosmos 2278 Rocket 2.1 17:51:50 10° SSW 17:57:30 86° ESE 18:02:47 12° NNE
Cosmos 2026 Rocket 4.5 17:52:43 10° N 17:58:11 33° ENE 18:03:40 10° SE
NOAA 6 4.4 17:55:09 10° SE 17:59:57 41° ENE 18:04:45 10° N
BREEZE-M DEB (TANK) 3.0 17:58:00 10° WSW 18:00:41 69° SSE 18:03:16 29° ENE
Aureole 3 Rocket 2.1 17:57:40 10° S 18:00:41 85° W 18:03:11 15° N
BREEZE-M DEB (TANK) 2.8 17:59:11 10° WSW 18:01:40 79° NNW 18:04:09 28° ENE
Geosat 4.4 18:04:10 30° E 18:06:00 41° NE 18:10:41 10° NNW
SL-16 R/B 4.2 18:00:41 10° N 18:06:05 32° WNW 18:11:29 10° WSW
Cosmos 2251 Rocket 3.4 18:03:05 10° SSW 18:08:20 76° ESE 18:12:38 16° NNE
YAOGAN 1 2.4 18:06:47 10° SSE 18:11:00 65° ENE 18:15:13 10° N
Cosmos 371 Rocket 3.5 18:07:27 10° S 18:11:59 44° ESE 18:12:52 39° ENE
Cosmos 304 Rocket 3.9 18:08:33 10° S 18:13:03 46° ESE 18:13:57 41° ENE
SJ 16-02 1.2 18:10:23 10° S 18:14:37 60° ESE 18:15:42 44° NE
Cosmos 841 Rocket 3.6 18:09:38 10° NNW 18:14:48 53° ENE 18:17:15 29° SE
SL-19 R/B 3.9 18:10:04 10° SSE 18:15:15 72° ENE 18:20:28 10° NNW
CZ-4C R/B 4.1 18:15:45 10° NW 18:19:30 19° N 18:22:36 14° NNE
Nadezhda 4 Rocket 3.9 18:14:07 10° N 18:20:27 82° E 18:26:40 10° S
Cosmos 1862 3.0 18:19:08 10° NNW 18:22:46 80° W 18:26:24 10° S
Resurs 1-3 3.4 18:18:40 10° SSE 18:22:57 81° ENE 18:27:17 10° N
ATLAS 2AS CENTAUR R/B 3.2 18:17:59 10° NNW 18:24:13 37° NNE 18:25:35 33° ENE
ARIANE 5 R/B 4.4 18:21:36 10° SSW 18:25:56 30° W 18:30:19 10° NW
COSMOS 2406 3.1 18:20:49 10° NNW 18:26:30 66° ENE 18:29:08 32° SE
Cosmos 468 Rocket 4.4 18:23:13 10° NNW 18:28:22 63° WSW 18:33:27 10° S
Cosmos 1656 Rocket 4.0 18:23:33 10° S 18:28:33 42° ESE 18:28:33 42° ESE
Cosmos 1627 Rocket 4.5 18:22:52 10° N 18:28:52 53° ENE 18:34:53 10° SSE
Cosmos 2195 Rocket 4.4 18:28:01 10° N 18:34:20 72° E 18:40:39 10° SSE
Cosmos 1536 Rocket 3.9 18:30:30 10° NNW 18:34:54 65° W 18:39:14 10° S
Okean 2 Rocket 3.0 18:31:35 10° S 18:35:59 84° WNW 18:37:52 34° N
Cosmos 1190 Rocket 4.2 18:33:59 10° SSW 18:39:16 72° WNW 18:42:26 25° NNE
Cosmos 1428 Rocket 4.5 18:33:48 10° N 18:40:06 86° W 18:46:25 10° S
Cosmos 676 Rocket 3.9 18:36:51 10° SSW 18:42:09 78° ESE 18:43:15 56° NE
Cosmos 2344 3.8 18:34:47 10° NW 18:42:37 68° NE 18:47:32 33° ESE
Resurs 01 Rocket 3.4 18:46:23 20° N 18:46:23 20° N 18:47:48 10° N
Meteor 2-3 Rocket 3.6 18:40:29 10° N 18:46:14 79° ENE 18:49:59 22° SSE
ISS -1.9 18:48:08 10° W 18:50:07 30° WNW 18:50:07 30° WNW
Cosmos 1954 Rocket 4.2 18:46:59 10° SSW 18:52:13 68° WNW 18:54:18 37° N
COSMO-SKYMED 1 3.4 18:57:48 39° NNW 18:58:43 47° WNW 19:02:40 10° SW
USA 281 3.1 19:02:00 62° ENE 19:02:07 62° ENE 19:08:36 10° NNW
Cosmos 1400 Rocket 4.3 19:02:26 10° SW 19:05:52 33° WNW 19:05:52 33° WNW
Cosmos 1943 Rocket 4.2 19:28:44 10° W 19:33:05 22° NW 19:35:40 17° N
Cosmos 2082 Rocket 4.4 19:33:08 10° NW 19:37:15 21° W 19:41:20 10° SSW
Cosmos 2278 Rocket 4.3 19:38:05 10° W 19:42:19 21° NW 19:44:37 17° NNW
SJ 16-02 4.0 19:50:12 10° W 19:52:17 17° WNW 19:52:17 17° WNW
ATLAS 2AS CENTAUR R/B 3.7 20:08:53 10° NW 20:13:01 40° NW 20:13:01 40° NW
